Regional Weather Roundup
Issued by NWS

Current Version | Previous Version | Text Only | Print | Product List | Glossary On
Versions: 1 2 3 4 5 6 7 8 9 10 11 12 13 14 15 16 17 18 19 20 21 22 23 24 25 26 27
000
ASUS46 KSEW 260810
RWRWA

WASHINGTON REGIONAL WEATHER ROUNDUP
NATIONAL WEATHER SERVICE SEATTLE WA
100 AM PDT MON JUN 26 2017

NOTE:"FAIR" INDICATES FEW OR NO CLOUDS BELOW 12,000 FEET WITH NO
SIGNIFICANT WEATHER AND/OR OBSTRUCTIONS TO VISIBILITY.

WAZ507-509-555>559-260900-
SEATTLE, TACOMA, EVERETT, AND VICINITY

CITY           SKY/WX    TMP DP  RH WIND       PRES   REMARKS
EVERETT        MOCLDY    68  49  50 CALM      29.91R
BOEING FIELD   MOCLDY    66  59  78 S7        29.90R
RENTON         MOCLDY    69  58  67 SE7       29.90R
SEATAC AIRPORT MOCLDY    64  56  75 SW5       29.92R
JBLM-MCCHORD   MOCLDY    62  59  89 W5        29.93R
PUYALLUP       FAIR      63  57  82 CALM      29.93R
BREMERTON      MOCLDY    58  55  90 SW7       29.92S
JBLM-FT LEWIS  MOCLDY    61  59  92 W8        29.92S
TACOMA NARROWS MOCLDY    60  56  86 SW7       29.93R
$$

WAZ001-503-506-510-514-515-260900-
NORTH INTERIOR

CITY           SKY/WX    TMP DP  RH WIND       PRES   REMARKS
BELLINGHAM     CLOUDY    65  51  60 S12G18    29.84R
FRIDAY HARBOR  CLOUDY    59  53  80 CALM      29.85F
EASTSOUND      CLOUDY    61  52  72 VRB7      29.82F
PORT ANGELES   CLOUDY    57  50  77 W8        29.88R
EDIZ HOOK      FAIR      55  50  85 W15G23    29.87R
PORT TOWNSEND    N/A     61  54  77 E3        29.87S
NAS WHIDBEY    MOCLDY    59  48  67 S8        29.91S
ARLINGTON      CLOUDY    65  50  58 NE9       29.88S
BURLINGTON     CLEAR     63  50  63 SE7       29.87S
$$

WAZ020-022-039-040-504-511-512-260900-
SOUTHWEST INTERIOR

CITY           SKY/WX    TMP DP  RH WIND       PRES   REMARKS
SHELTON        NOT AVBL
OLYMPIA        PTCLDY    60  55  83 S3        29.93S
CHEHALIS       FAIR      61  57  88 SW3       29.96R
KELSO          CLOUDY    60  55  83 W3        30.00R
VANCOUVER      PTCLDY    63  57  81 N6        29.94F
SCAPPOOSE, OR  PTCLDY    61  55  81 N7        29.95R
PORTLAND, OR   MOCLDY    64  55  72 N5        29.94F
$$

WAZ021-516-517-260900-
WASHINGTON COAST

CITY           SKY/WX    TMP DP  RH WIND       PRES   REMARKS
FORKS          MOCLDY    53  51  93 SW5       29.98R
HOQUIAM        MOCLDY    59  57  93 W13       29.99S FOG
ASTORIA, OR    CLOUDY    56  53  90 SW8       29.99S
$$

WAZ019-023-024-040-567>569-260900-
CASCADE MOUNTAINS AND COLUMBIA GORGE

CITY           SKY/WX    TMP DP  RH WIND       PRES   REMARKS
STAMPEDE PASS  PTCLDY    66  47  50 SW3       30.05F
TROUTDALE, OR  CLOUDY    69  57  65 NW3       29.91F
HOOD RIVER, OR CLOUDY    73  54  49 W7G17     29.87R
THE DALLES, OR CLOUDY    81  58  45 NW17      29.82R
$$

WAZ026-027-041>044-520-521-260900-
EAST SLOPES

CITY           SKY/WX    TMP DP  RH WIND       PRES   REMARKS
OMAK           PTCLDY    66  49  54 NW6       29.85F
WENATCHEE      PTCLDY    74  47  38 W8        29.84F
ELLENSBURG     MOCLDY    68  49  50 E3        29.88F
YAKIMA         MOCLDY    69  53  56 W6        29.84F
SUNNYSIDE ARPT MOSUNNY   64  57  78 CALM      29.81F
YAKIMA TC      NOT AVBL
$$

WAZ028-034-035-260900-
COLUMBIA BASIN

CITY           SKY/WX    TMP DP  RH WIND       PRES   REMARKS
EPHRATA        CLEAR     77  37  23 NW6       29.83S
MOSES LAKE     PTCLDY    68  50  52 N5        29.83S
PASCO          CLOUDY    71  58  63 N5        29.79S
RICHLAND ARPT  CLOUDY    74  50  43 CALM      29.79S
HERMISTON, OR  CLOUDY    70  50  49 SE5       29.80S
$$

WAZ036>038-260900-
NORTHEAST WASHINGTON

CITY           SKY/WX    TMP DP  RH WIND       PRES   REMARKS
SPOKANE GEIGER MOCLDY    69  51  52 CALM      29.91F
SPOKANE FELTS  MOCLDY    67  51  56 N5        29.90S
FAIRCHILD AFB  MOCLDY    71  46  40 CALM      29.91F
COEURDALENE,ID MOCLDY    66  55  67 E7        29.92S
DEER PARK      MOCLDY    55  49  80 CALM      29.91F
$$

WAZ029>033-260900-
SOUTHEAST WASHINGTON

CITY           SKY/WX    TMP DP  RH WIND       PRES   REMARKS
PULLMAN        PTCLDY    69  45  41 CALM      29.93F
LEWISTON, ID   PTCLDY    74  49  41 CALM      29.85S
WALLA WALLA    MOCLDY    80  53  39 S8        29.82R
PENDLETON, OR  MOCLDY    70  53  54 NW3       29.86R
$$




USA.gov is the U.S. government's official web portal to all federal, state and local government web resources and services.